Погода в Курсавке

Россия / Ставропольский край     44°27′12″N   42°29′35″E
темп.,
°C
ветер,
м/с
пор.,
м/с
влажн.,
%
обл.,
%
осадки,
мм/ч
давл.,
гПа
погр.,
м
18 апреля, вс
вс1800:00+7юв2393100 0.0 102261
03:00+7в3794100 0.1 1020227
06:00+7в3799100 0.5 1019268
09:00+10юв5892100 2.1 1018380
12:00+14вюв6775100 0.0 1015590
15:00+16в226947 0.7 1015790
18:00+15вюв238070 0.8 1016129
21:00+12ююв3693100 1.0 1016104
19 апреля, пн
пн1900:00+11ююв2294100 0.0 101627
03:00+11ю1191100 0.2 101610
06:00+12юв1192100 0.6 101516
09:00+13зсз3490100 1.5 1017272
12:00+16всв1277100 0.9 1016584
15:00+19вюв5665100 1.1 1013936
18:00+17юв5977100 0.6 1013348
21:00+13юв4789100 0.8 1013124
20 апреля, вт
вт2000:00+12вюв3589100 0.0 101389
03:00+10вюв51189100 0.0 1010198
06:00+11вюв61581100 0.1 1007297
09:00+14вюв71478100 0.1 1005332
12:00+20юв7859100 0.0 1004393
15:00+19юв4667100 0.0 1005270
18:00+17с138389 0.9 1006138
21:00+13зсз71276100 1.8 1011559
21 апреля, ср
ср2100:00+11зсз4873100 0.4 1013381
03:00+10зсз2380100 0.8 1014201
06:00+10юв2287100 0.4 1016174
09:00+9ссв1294100 5.9 1019239
12:00+8с2389100 1.3 1021303
15:00+9всв0182100 1.3 1021197
18:00+9ююв2392100 0.2 1022142
21:00+8вюв2594100 0.9 1023265
22 апреля, чт
чт2200:00+8в3794100 0.3 1023399
03:00+8вюв4797100 1.1 1022295
06:00+8в3795100 0.2 1022279
09:00+9в4790100 0.3 1023411
12:00+9в3691100 0.1 1024449
15:00+9в4691100 0.3 1024453
18:00+9в249299 0.0 1024283
21:00+8ююв239467 0.0 102488